STARLINK-1336, 45557

Orbit data source: Space-Track

STARLINK-1336, 45557 is a payload satellite owned by SpaceX/Seattle (US) in LEO that was launched on Wed, 22 Apr 2020 UTC via an FALCON 9 launch vehicle from the Air Force Eastern Test Range (AFETR). Payload-class satellites include a variety of spacecraft equipped with specific instruments for various scientific and technological missions. These include communications satellites like Starlink; space stations such as the ISS; scientific satellites like the Hubble; Earth observation satellites from companies like Planet Labs, Umbra, and HawkEye 360; GPS; miniature CubeSats for education and research; and military/defense satellites.

Loading next visibility...
Identifier
45557, 2020-025AC
Orbit
LEO
Last TLE update
6 hours ago
Origin
Manufacturer
SpaceX/Seattle
Mission
Partially operational Commercial Communications
Bus & Motor
STARLINK, Unknown motor
Mass
260 kg wet, ~248 kg dry
Launch date (UTC)
2020-04-22 (5 years ago)
Launch vehicle
FALCON 9
Launch site
Air Force Eastern Test Range (AFETR)
Object type
Payload
Rocket body
Debris
Shape & HBR
Box + 1 Pan, 8.86 m
Radar Cross Section
13.562 m², Large (>1 m²)

Expand to show TLE details & history

TLE from 6 hours ago
0 STARLINK-1336
1 45557U 20025AC  25182.10614151  .00110829  00000-0  14741-2 0  9992
2 45557  53.0489 128.7152 0001948 135.4329 224.6839 15.57353997286949
Epoch: 2025-07-01T02:32Z
TLE epoch observation values (Epoch: 2025-07-01T02:32:50.626Z)
Latitude
-0.00002°
Longitude
171.09788°
Altitude
397.155 km
Speed
7.673 km/s
True Right ascension
08h 34m 51s
True Declination
0° 00' 00"
Sunlit
Object was in daylight at epoch
Visualization orbit readout
Latitude
-14.22912°
Longitude
158.93317°
Altitude
400.154 km
Speed
7.67 km/s
Apparent Right ascension
07h 58m 57s
Apparent Declination
-26° 34' 45"
Sunlit
Object is in daylight
Visualization observer readout
Local Sidereal Time
20:16:03
Azimuth
16.234° NNE
Elevation
-76.197°
Doppler factor
1
Orbital elements
Apogee altitude
396.916 km
Perigee altitude
394.276 km
Semi-major axis
6,773.733 km
Eccentricity
0.00019
Inclination
53.0489°
RAAN
128.7152°
Arg. of periapsis
135.4329°
True anomaly
Unknown
Mean anomaly
224.6839°
Eccentric anomaly
Unknown
Mean motion
3.89315 °/min
Orbital period
92.47 mins
BSTAR
0.0014741
Loading maneuver chart data...
Loading SW <> Apogee altitude chart data...
Loading historical data...
Loading historical data...
Loading historical data...
Loading historical data...
Loading historical data...
Loading historical data...
Loading historical data...

STARLINK-1336 Visibility forecast

Observer location: undefined°, undefined°

Span
Click to sort rows by Start time (UTC) header in descending order
Start Az.
Max El. time (UTC)
Max El. Az.
Max El.
End time (UTC)
End Az.
5 mins2025-07-01 22:43:54.460Z208.126° SW2025-07-01 22:46:54.460Z129.269° SE34.76°2025-07-01 22:48:54.460Z68.532° E
5 mins2025-07-02 05:11:54.460Z327.348° NNW2025-07-02 05:14:54.460Z49.768° ENE28.683°2025-07-02 05:16:54.460Z96.282° ESE
|